Theta_e
348 349 350 352 353 352 351 353 353 352 352 351 350 350 349 349 348 347 345 345 345 345 344 345 344 344 344 344 343 339 334 331 332 335 339 339 337 336 335 337 342 346 350 351 349 346 343 344 345 344 343 342 341 343 344 344 343 343 343 343 343 344 344
345 346 347 349 351 352 351 352 354 353 353 352 351 351 350 350 348 347 346 345 345 346 345 345 345 345 345 344 344 342 339 335 332 332 335 337 336 335 333 335 338 341 345 350 350 347 343 342 342 343 342 342 342 342 343 344 343 343 343 342 344 345 344
344 344 346 346 348 350 352 353 354 354 353 353 352 352 351 351 349 347 347 346 346 346 346 346 346 345 345 345 344 344 343 340 336 332 331 333 333 333 333 333 335 338 340 344 347 346 345 343 341 342 342 342 344 343 342 344 344 343 343 342 343 345 345
343 343 344 345 346 348 351 353 353 353 354 353 353 353 352 350 349 348 347 347 347 346 346 346 346 346 346 345 345 344 344 343 339 334 331 331 331 331 332 332 333 337 339 339 342 346 346 344 342 342 341 341 343 343 342 343 343 343 343 343 343 344 345
343 343 343 344 346 347 350 352 353 353 353 353 353 352 352 350 349 349 348 348 347 348 347 347 347 347 346 346 345 345 345 344 342 336 332 331 331 330 331 332 332 334 336 336 338 341 342 342 343 343 341 340 341 342 342 342 343 343 342 343 343 344 345
341 342 343 343 344 346 348 350 352 353 352 351 351 352 353 351 350 350 350 349 349 348 348 347 347 347 347 346 346 345 345 345 344 340 335 333 333 331 329 330 331 333 335 336 336 337 338 339 342 344 343 343 343 344 345 344 343 345 343 342 343 344 348
337 339 342 343 343 344 346 348 351 352 351 351 350 351 352 352 352 351 351 351 351 350 349 348 348 347 347 347 346 346 345 345 345 343 339 335 334 333 331 330 329 331 334 334 333 334 335 335 338 341 343 346 348 349 350 347 343 345 345 343 343 343 344
335 336 339 341 342 343 344 347 349 351 351 351 351 352 352 351 351 352 351 351 352 351 351 350 349 348 347 347 347 346 345 345 345 345 343 339 336 334 333 332 329 328 330 331 330 330 331 332 335 336 338 345 347 348 350 348 344 345 347 345 345 344 344
333 334 336 338 340 341 342 344 347 348 349 349 350 351 351 351 350 350 351 351 351 351 352 352 351 349 347 347 347 346 346 346 345 345 345 343 339 336 336 336 332 328 328 329 330 329 328 329 332 332 333 340 343 342 344 346 343 344 347 346 345 344 346
332 333 334 335 336 338 340 343 345 346 347 348 348 349 351 351 350 350 350 350 350 351 351 351 352 352 349 347 347 347 346 346 346 345 345 345 344 340 340 341 339 333 329 329 332 333 329 327 328 330 329 334 339 339 340 343 342 343 344 343 343 342 342
331 331 332 332 333 335 338 340 342 343 344 345 346 347 349 350 350 350 350 350 350 350 350 351 351 352 351 347 346 347 347 346 346 345 345 345 346 345 344 344 344 341 335 331 334 337 335 329 326 328 328 329 333 336 338 340 340 341 341 340 338 335 334
331 331 331 331 331 331 333 336 338 340 342 343 344 345 346 348 349 350 350 350 350 349 350 350 350 351 351 349 348 347 346 346 346 346 346 345 346 347 347 347 347 346 341 334 334 338 340 335 328 326 328 328 329 331 335 339 339 338 337 337 338 335 333
329 330 330 331 330 329 330 332 334 336 338 341 343 344 345 347 348 349 349 349 349 349 349 350 350 350 351 351 351 348 346 346 346 346 346 345 345 347 348 348 348 348 346 340 336 337 341 341 334 328 326 327 327 328 331 336 338 337 333 332 336 336 333
328 328 329 329 330 329 329 330 330 331 333 336 340 342 344 345 347 347 348 348 349 349 349 349 350 351 350 351 351 349 347 347 346 346 345 346 345 345 347 348 348 347 347 345 341 338 340 343 341 335 329 328 328 327 328 330 333 335 331 327 329 331 329
327 327 327 328 328 329 329 329 329 329 329 330 334 338 341 344 345 346 346 347 347 349 350 350 349 350 351 351 350 348 347 347 347 346 345 345 346 345 346 346 347 347 346 345 344 343 342 342 343 342 338 331 328 328 328 328 329 328 328 326 326 327 328
327 327 327 327 327 328 328 328 328 328 329 328 328 331 336 340 343 345 346 348 348 348 348 350 350 351 351 351 351 349 347 346 346 346 346 346 345 346 346 345 346 347 346 345 345 345 345 344 343 344 344 338 331 328 328 328 328 326 326 326 325 325 327
327 327 326 327 327 327 327 327 327 327 328 329 329 328 330 334 339 342 344 347 348 348 348 349 351 352 351 351 352 352 350 348 346 345 346 346 346 346 346 346 346 346 346 345 345 345 345 346 345 344 346 345 339 333 329 328 327 327 326 326 326 326 326
327 327 326 326 327 326 327 327 327 326 326 328 329 330 329 330 333 338 342 345 347 348 348 349 350 351 353 352 352 352 352 350 348 347 345 345 346 346 346 345 345 345 346 345 346 346 345 346 346 345 346 347 347 343 337 331 327 327 327 326 326 326 326
327 327 326 326 326 326 326 327 327 327 327 327 327 328 330 330 330 333 337 341 344 346 347 348 349 350 352 353 352 351 349 348 348 349 349 346 345 345 346 345 345 346 346 346 345 346 346 346 346 347 346 346 347 348 346 341 333 327 325 326 327 326 326
326 326 327 326 326 325 326 326 327 327 327 326 325 326 328 330 330 331 332 335 338 342 345 347 348 349 350 351 353 353 351 349 348 348 348 348 346 346 345 346 346 346 346 346 347 346 346 347 347 346 347 347 347 347 348 348 344 336 328 325 325 326 326
323 324 325 326 326 326 325 325 326 326 326 326 325 325 326 328 330 330 331 332 334 336 340 343 346 349 350 350 351 353 353 353 351 349 347 347 347 347 347 346 347 347 347 348 349 349 347 347 347 347 347 347 348 348 348 349 349 346 340 333 329 327 326
321 322 322 323 324 325 326 325 324 325 326 326 326 325 325 327 329 330 331 332 333 333 334 336 340 345 349 350 351 352 353 353 354 353 351 349 349 349 350 350 348 347 347 348 351 353 352 349 347 348 348 348 348 348 349 350 351 351 350 346 342 339 336
319 319 320 321 321 323 325 324 323 324 325 326 326 324 324 325 327 329 330 331 332 332 332 332 334 338 344 348 350 352 353 353 353 353 354 354 353 353 354 354 353 351 349 348 349 353 354 352 350 348 348 349 348 349 349 350 351 352 353 352 351 350 348
318 318 318 319 319 321 322 322 323 323 324 326 325 323 321 323 324 326 329 329 330 331 332 332 332 334 336 341 345 349 351 353 352 353 354 355 356 356 356 356 357 356 354 351 351 352 353 354 354 352 351 350 350 350 350 351 352 352 353 354 354 354 353
317 317 318 317 317 319 319 320 322 323 323 324 324 323 323 322 321 323 326 327 327 329 330 331 332 333 333 335 338 343 347 349 351 353 353 354 356 358 357 355 356 357 357 356 355 354 354 355 356 355 355 354 353 352 352 352 353 354 354 354 355 355 354
317 317 317 317 317 317 316 318 320 322 323 323 323 323 324 323 320 320 323 324 323 325 328 329 330 331 332 333 334 337 340 343 347 350 352 353 355 357 357 356 356 356 357 357 357 356 356 356 356 356 357 357 356 355 355 355 355 355 355 356 355 356 356
317 317 317 317 317 315 315 317 319 319 321 322 322 323 324 323 319 319 321 322 322 323 325 327 328 329 331 332 332 332 334 336 339 343 347 350 353 355 356 356 356 356 356 356 357 358 357 357 357 357 357 358 358 358 357 357 357 357 357 357 357 358 358
317 317 317 318 317 316 316 317 317 317 319 321 322 323 323 321 319 317 319 321 322 322 322 324 327 328 328 329 329 330 330 331 332 335 340 344 348 350 353 355 357 356 355 355 356 357 357 357 358 358 359 359 359 360 359 359 358 358 358 359 359 359 359
317 317 318 318 318 318 318 316 316 317 318 320 321 322 321 320 318 316 317 319 319 319 320 322 324 326 327 327 328 329 329 329 330 331 332 336 340 343 346 349 353 355 356 356 356 356 355 355 357 358 359 359 360 360 361 361 360 360 360 360 360 360 360
317 317 317 318 318 318 319 318 316 315 315 317 319 320 321 321 319 316 316 317 317 317 319 320 322 324 326 327 328 328 326 326 328 330 330 330 331 334 337 341 346 352 356 357 357 356 354 354 354 356 357 359 360 360 361 362 362 361 360 359 360 361 361
316 316 316 317 317 318 319 319 317 314 312 313 317 320 322 323 321 318 316 316 316 316 317 319 320 321 323 325 326 327 325 324 324 327 330 329 328 329 334 339 344 349 354 356 357 357 356 355 355 354 355 358 359 359 359 360 363 363 361 360 359 360 361
315 315 315 316 317 317 317 318 318 317 315 313 315 320 323 324 324 322 319 316 315 315 316 317 318 320 321 323 324 325 326 327 325 323 327 330 329 329 334 340 344 347 351 355 357 357 357 358 357 356 355 355 356 358 358 359 360 361 361 361 361 360 361
314 314 315 315 316 316 317 317 318 318 318 316 315 318 322 324 325 324 322 320 318 316 315 316 317 318 319 321 323 324 326 329 329 324 321 327 331 330 331 336 341 345 349 353 355 355 356 358 358 358 356 354 351 353 356 357 359 360 361 362 362 361 360
313 313 314 314 314 315 316 316 317 317 318 318 316 316 318 321 323 324 324 323 322 318 316 315 316 317 318 319 321 323 324 328 330 328 322 322 329 332 331 330 334 341 345 349 353 354 355 356 357 357 356 353 350 351 354 357 358 359 360 362 363 362 360
313 313 313 313 314 314 315 315 316 316 317 318 318 318 317 319 322 323 323 323 323 321 318 315 315 316 317 318 319 321 323 326 329 330 329 324 324 331 334 331 330 334 338 342 347 350 352 353 355 356 356 355 352 350 353 356 359 358 358 360 362 363 362
312 312 312 313 313 314 314 315 316 316 317 318 318 319 319 319 320 321 323 323 322 322 320 317 315 315 317 318 318 319 322 323 325 328 330 328 324 325 331 333 332 331 332 335 339 343 346 348 350 352 354 356 356 354 354 357 359 359 357 358 360 362 363
311 312 312 313 313 314 314 315 315 316 317 317 318 318 319 319 319 320 322 322 322 322 321 320 317 316 316 317 318 318 320 321 323 326 328 329 328 324 325 330 333 332 332 333 334 337 340 341 342 345 347 350 352 352 354 357 359 360 359 359 360 360 362
312 312 313 313 314 314 314 315 315 316 316 317 317 318 319 320 319 320 321 322 321 321 321 321 320 318 316 316 317 318 318 319 322 325 326 327 328 327 324 324 328 331 332 332 332 333 334 335 337 341 343 344 344 343 345 351 356 358 359 359 360 361 362
Wind_Speed
12 5 1 6 11 16 18 19 21 22 23 24 26 26 26 26 26 26 25 24 24 24 24 24 24 23 22 21 21 20 20 21 21 21 19 18 17 16 17 16 16 14 12 11 10 11 11 10 10 9 8 8 7 7 7 6 6 5 5 6 6 7 8
16 12 7 4 1 8 17 20 20 21 23 23 24 26 26 26 27 27 26 25 24 24 24 24 24 23 22 22 21 20 20 20 21 22 21 20 18 17 17 16 16 16 14 12 11 11 11 11 10 10 9 9 8 7 8 7 7 6 6 6 6 7 7
17 15 11 7 5 3 9 18 21 21 22 22 23 24 25 26 28 29 27 26 25 24 24 24 24 23 22 22 23 22 20 19 20 22 23 22 20 18 17 17 17 16 15 15 13 12 12 12 11 11 10 9 9 8 8 8 8 8 8 7 6 7 7
18 17 14 10 6 5 3 10 18 20 20 22 23 22 24 26 28 30 28 26 26 26 26 25 24 24 24 23 23 23 21 20 19 21 22 23 22 20 19 18 18 17 17 16 15 14 14 14 12 12 11 11 10 10 9 9 9 9 9 8 8 8 8
18 17 16 15 10 6 5 4 11 18 20 20 20 22 23 24 25 28 30 28 27 26 26 25 24 24 25 24 24 23 22 21 19 20 21 23 23 22 21 20 18 18 18 17 17 17 16 15 14 13 13 12 12 11 11 10 10 10 10 9 9 9 9
18 18 17 17 14 10 7 6 3 11 18 19 19 21 22 22 24 25 26 28 28 27 26 26 26 26 26 25 25 25 23 22 21 20 20 22 23 23 22 21 19 19 18 18 18 18 18 17 17 16 14 13 13 12 12 11 11 11 11 10 10 10 10
18 19 18 17 16 14 8 4 4 1 11 16 17 19 20 21 22 23 23 24 26 27 27 27 28 28 28 26 26 26 25 24 22 21 20 21 23 23 22 22 21 20 20 19 19 19 19 18 18 18 17 15 14 13 13 13 13 13 12 12 11 11 10
18 19 19 18 17 17 13 5 5 5 7 11 11 13 17 19 19 20 21 22 22 24 25 26 27 28 28 27 28 27 26 25 24 23 22 21 22 22 23 23 23 22 21 21 20 19 19 19 19 20 19 18 17 16 16 15 14 14 14 13 12 12 11
19 19 20 21 19 20 20 13 5 6 8 10 9 9 11 14 17 19 20 21 21 22 24 24 24 26 27 27 28 27 26 26 26 25 24 23 23 23 23 23 24 24 23 22 21 20 20 20 20 20 21 20 20 19 18 17 16 15 15 15 14 13 12
20 20 21 24 25 25 25 21 11 6 6 7 6 7 9 10 12 16 19 20 20 20 21 22 21 23 26 27 27 27 27 27 27 26 26 25 25 24 24 24 23 24 24 23 22 22 22 21 21 21 21 21 22 22 21 20 19 17 17 17 15 14 13
20 22 23 25 29 32 31 27 22 16 11 7 5 3 7 9 9 11 14 17 20 19 19 20 21 22 24 25 26 27 28 28 28 28 27 27 27 26 24 24 23 24 25 24 24 23 23 23 22 22 22 22 23 23 23 23 22 20 19 18 17 16 15
18 21 23 25 29 33 33 31 28 25 20 13 8 4 2 6 8 10 12 14 17 18 19 20 21 22 22 23 23 25 27 28 29 29 28 28 28 27 26 25 24 24 25 25 25 25 24 24 24 24 23 23 23 24 24 25 25 23 21 20 19 18 16
17 19 21 23 26 30 33 31 29 28 26 21 15 10 4 2 7 10 12 13 13 14 17 19 20 21 23 22 22 23 25 26 27 29 29 29 28 27 27 26 26 25 25 25 26 26 25 25 26 26 25 24 24 24 25 25 26 26 24 22 21 20 18
17 18 20 21 23 26 29 30 30 28 27 25 21 17 12 4 4 8 10 12 14 12 13 16 19 20 22 23 23 23 23 23 25 26 28 29 29 29 29 28 27 27 27 27 26 26 26 26 25 26 27 26 26 26 26 27 28 28 27 25 24 22 21
17 18 19 20 21 23 24 26 28 28 27 26 22 20 18 12 5 2 6 9 13 13 11 13 17 20 21 22 25 26 25 23 23 25 26 28 29 29 30 30 30 29 29 29 28 27 27 27 26 26 27 28 28 28 28 29 30 30 30 29 27 26 24
16 17 18 19 19 20 21 23 25 26 26 26 24 21 18 16 14 8 2 2 6 12 13 12 14 18 20 21 23 26 28 27 26 25 26 27 28 28 29 30 31 31 31 31 30 29 28 28 28 28 28 29 31 31 31 31 32 33 32 31 30 29 27
15 16 17 18 19 20 20 20 23 24 25 24 24 23 19 16 14 12 9 6 3 6 11 11 11 14 17 18 20 21 24 28 29 28 27 27 27 28 28 29 30 32 33 33 32 31 31 30 31 31 30 30 31 32 33 34 35 35 34 33 32 31 30
14 15 16 17 18 19 19 19 20 22 23 23 22 21 20 18 15 12 10 9 6 3 5 9 11 12 12 14 18 20 21 25 27 28 29 29 28 28 28 29 30 31 32 33 33 33 33 32 32 33 32 32 32 33 34 36 37 37 36 35 34 34 33
12 13 14 15 17 18 18 18 19 19 20 21 21 21 19 18 17 14 11 9 7 6 5 6 10 12 11 12 15 19 22 25 25 24 25 28 29 29 29 30 30 30 31 32 32 33 34 34 33 33 34 34 34 34 35 36 37 38 38 37 36 35 35
11 12 12 14 15 16 17 18 18 19 19 18 19 19 18 17 17 16 14 11 8 7 7 5 7 12 14 15 14 15 20 24 25 24 23 24 27 29 31 31 30 29 29 30 32 33 33 33 34 34 34 34 36 36 36 36 37 38 38 38 38 37 36
11 12 12 13 14 15 16 17 18 19 19 18 18 18 17 17 16 15 15 14 11 9 8 7 7 9 13 16 16 16 17 19 21 22 24 26 27 28 29 30 30 29 29 29 30 32 33 32 32 34 34 34 35 36 37 37 37 38 37 37 37 37 37
11 12 12 13 14 14 14 16 17 18 18 18 18 17 16 16 16 15 15 15 15 13 10 8 8 8 9 13 16 18 19 18 18 19 22 25 26 26 26 27 29 30 30 30 29 29 31 32 32 32 34 35 35 36 37 37 37 37 36 36 35 34 36
10 11 11 12 12 13 13 14 16 16 16 16 17 17 16 14 14 15 15 14 15 15 14 11 9 8 8 9 13 18 20 21 21 21 21 22 23 24 24 24 25 27 30 32 32 30 30 31 32 32 33 34 35 36 37 37 37 36 35 34 33 32 33
10 12 12 12 13 12 12 14 15 15 15 14 16 17 16 14 13 13 14 14 13 13 13 14 13 10 8 8 10 14 19 22 23 24 24 22 22 23 24 24 24 25 27 30 31 31 30 30 30 32 32 33 34 36 36 36 36 37 36 34 33 33 33
11 12 13 13 13 13 14 15 15 15 14 13 15 17 17 16 15 13 12 12 12 13 12 12 13 13 12 9 9 11 14 19 23 26 27 26 22 22 25 27 26 26 26 28 29 30 29 29 29 30 30 32 33 33 35 35 34 36 36 35 33 33 33
12 13 14 14 14 14 15 15 14 14 14 14 15 16 16 17 18 16 15 13 12 12 13 12 11 12 13 12 10 9 11 14 18 22 27 30 28 24 24 27 29 27 27 27 27 28 28 27 28 29 29 29 30 31 33 34 33 34 35 34 34 33 33
13 13 13 14 16 17 17 14 14 15 14 14 16 15 15 17 19 19 18 17 16 14 13 13 12 11 11 13 13 10 10 12 15 18 21 26 31 31 28 27 27 28 28 26 24 26 28 27 27 28 29 29 29 30 31 32 33 34 34 33 33 32 32
16 15 14 14 16 18 18 16 16 16 15 15 14 14 16 19 21 21 19 19 20 19 15 13 12 12 11 11 13 14 12 11 13 16 18 20 24 28 30 30 30 29 29 28 25 26 28 28 26 26 28 29 29 29 30 31 32 33 34 33 32 32 32
17 18 17 15 14 15 17 19 19 17 16 15 15 15 17 19 21 22 21 20 21 22 20 16 13 12 12 11 12 15 16 15 14 14 16 17 18 21 23 27 31 31 29 29 29 28 27 28 28 28 29 30 30 29 29 30 32 33 34 34 32 31 32
17 18 19 18 16 15 15 18 21 21 19 18 17 18 18 19 21 22 22 21 21 22 22 21 17 14 13 12 12 13 17 19 18 16 15 16 17 19 20 21 24 28 28 27 29 30 29 29 30 31 32 32 32 31 29 28 29 31 33 35 34 32 31
17 18 19 19 19 17 16 17 20 24 24 21 19 18 17 17 20 22 23 23 23 22 23 23 22 19 16 14 14 13 15 19 21 20 18 16 16 17 17 16 18 25 28 27 27 28 29 29 28 29 32 34 34 33 32 29 27 28 30 33 34 34 33
17 18 19 20 20 20 19 18 18 21 24 23 20 17 16 16 18 20 23 24 24 24 23 23 24 23 20 18 17 16 14 16 20 23 22 19 16 15 14 14 16 20 24 25 25 24 26 27 27 26 28 32 34 36 35 32 30 30 30 30 31 32 33
17 18 19 20 21 21 21 21 19 19 21 23 22 18 17 16 16 18 20 21 22 24 24 24 24 25 24 23 21 19 16 14 16 20 23 22 19 17 16 16 16 17 19 20 20 19 21 25 27 27 27 29 32 36 37 35 33 32 30 28 28 30 31
17 19 20 21 21 21 21 21 22 20 20 22 23 21 20 18 17 17 17 17 19 21 23 24 24 25 25 25 24 22 20 16 15 17 21 23 22 20 18 18 18 18 18 19 19 18 18 21 24 27 28 29 30 32 34 36 37 35 30 26 27 28 28
18 19 20 21 21 22 21 21 22 22 22 21 21 21 21 20 18 18 17 17 17 18 19 22 25 25 25 25 25 25 23 20 17 15 16 19 22 22 19 19 20 21 20 20 21 22 22 22 23 25 26 27 29 32 34 35 36 36 32 27 26 27 25
18 19 20 20 22 23 23 22 22 23 23 22 21 21 21 21 20 18 16 17 17 16 17 21 25 26 26 25 25 25 25 24 22 18 15 16 19 22 22 19 19 21 22 21 21 23 26 29 30 29 28 28 30 32 33 33 33 33 32 27 25 26 24
18 19 19 19 21 22 23 23 23 24 24 23 22 21 21 20 20 18 17 17 18 17 15 17 20 24 26 25 25 26 26 26 25 21 17 15 16 20 24 23 19 19 21 22 21 21 24 28 32 33 33 34 35 36 37 36 34 33 32 28 24 23 23
18 18 18 18 19 21 23 25 25 25 25 25 23 22 20 19 19 19 18 18 17 16 15 14 16 20 24 25 25 26 27 27 23 19 18 19 17 17 22 26 24 21 19 20 20 20 21 24 27 30 33 35 38 40 43 43 41 40 39 35 30 28 27
Wind_Direction
34 50 199 222 208 208 213 208 202 202 199 199 204 208 209 206 208 213 216 213 211 213 214 216 218 219 221 221 222 223 222 221 220 219 219 217 216 219 220 220 221 219 213 210 212 212 210 210 212 216 219 217 217 218 220 220 217 213 209 201 195 199 203
25 29 29 14 237 214 219 214 206 203 202 201 206 211 208 206 212 217 215 211 211 213 215 216 217 219 221 223 224 225 223 221 221 220 220 219 217 217 218 218 220 223 220 215 215 214 212 213 215 217 220 220 220 221 221 223 225 225 223 214 200 199 202
22 19 14 4 355 310 234 219 211 206 205 203 206 210 208 209 218 223 219 213 211 213 216 218 218 219 220 223 225 227 226 223 223 221 220 221 220 219 219 218 218 221 223 221 220 217 214 215 218 219 220 220 220 222 221 222 226 230 232 228 217 208 206
23 19 14 7 346 328 295 229 216 211 209 208 207 210 211 215 225 230 229 223 217 216 217 218 219 220 221 222 224 227 228 225 224 222 220 221 222 222 222 220 217 217 221 223 223 221 218 217 218 220 221 221 220 220 219 219 224 229 234 235 230 223 217
26 23 19 16 8 350 346 299 229 216 213 210 211 214 215 220 230 235 235 235 230 226 224 221 221 222 222 222 223 225 227 226 224 223 220 220 222 222 222 220 217 217 220 222 223 225 223 219 219 222 222 222 222 221 219 219 220 225 230 231 233 231 227
28 28 24 19 16 13 8 1 300 231 217 211 214 215 212 217 226 229 231 234 235 234 233 231 228 227 225 223 223 224 225 226 225 223 221 220 221 222 222 220 218 218 220 222 223 226 227 224 223 225 224 222 223 222 223 224 221 224 229 229 232 232 227
30 31 30 26 22 22 30 58 42 285 212 208 215 216 210 212 218 220 221 224 228 230 234 236 235 233 230 226 225 224 224 225 225 224 222 221 222 223 222 221 220 219 220 222 222 224 228 228 227 229 228 224 221 221 223 226 224 225 229 230 230 231 226
34 33 34 34 30 30 39 80 119 108 157 183 202 212 213 216 218 219 217 218 220 221 225 229 233 237 236 231 229 227 225 225 225 225 224 223 224 224 222 222 221 219 220 221 222 222 226 228 229 231 230 226 224 223 223 226 226 225 229 231 228 228 228
36 35 35 38 37 39 43 54 104 136 148 170 184 190 200 215 223 222 218 217 217 217 219 220 224 234 240 237 233 230 228 227 227 227 225 224 225 224 223 223 223 222 221 221 223 223 225 226 228 231 231 228 227 228 226 227 227 226 229 231 229 228 227
36 34 35 40 42 46 48 51 64 95 120 145 170 183 188 202 219 222 219 219 217 217 219 217 214 223 238 243 239 235 233 231 229 230 228 227 227 226 224 223 224 226 224 222 223 225 226 225 226 230 231 229 229 230 229 228 228 227 230 232 231 231 231
37 35 35 40 46 52 54 54 55 58 67 87 96 155 194 199 209 219 222 222 222 219 218 218 214 214 230 245 246 242 240 235 232 232 231 230 229 227 226 223 223 228 229 226 223 225 228 228 226 228 230 229 229 231 229 228 227 226 229 233 234 235 236
39 37 35 38 46 54 58 57 55 55 57 65 67 63 166 192 198 209 214 216 223 225 221 219 217 213 221 237 243 244 244 241 237 235 233 233 231 229 228 225 223 226 231 231 227 225 228 230 230 229 230 229 230 231 231 228 227 228 228 230 233 237 238
42 41 37 37 40 49 56 59 58 55 54 57 59 58 59 186 200 205 208 207 215 226 225 221 218 216 219 228 235 240 244 243 240 238 236 235 234 231 229 228 225 225 229 233 232 228 227 230 233 233 232 231 231 232 233 230 229 230 230 228 230 234 236
45 42 40 37 34 38 45 52 58 59 55 53 53 53 54 59 206 212 214 206 200 210 225 226 222 220 222 225 231 238 245 246 243 242 240 238 238 235 232 231 230 229 231 234 235 232 229 228 232 235 235 233 231 231 233 233 231 231 231 230 229 232 235
44 41 39 36 33 31 31 38 49 57 58 56 51 48 48 49 54 208 224 212 203 202 209 219 225 227 226 228 235 243 250 251 247 246 244 242 241 239 236 235 235 234 235 237 236 234 232 230 230 233 237 237 234 232 232 234 234 233 232 232 230 230 234
40 39 38 34 31 29 26 28 36 46 54 57 55 51 45 41 38 35 32 232 228 219 208 206 220 231 232 231 236 245 251 253 252 251 249 246 245 244 242 240 239 237 238 239 238 236 234 233 232 231 234 238 239 236 233 234 236 236 234 233 232 232 234
35 33 34 32 29 26 24 23 26 34 42 48 53 54 51 46 36 25 24 21 338 242 225 221 224 231 235 237 238 240 247 254 256 256 255 253 250 249 248 246 244 242 242 242 241 239 237 235 234 233 232 235 239 240 237 235 236 237 236 234 233 233 236
33 29 26 26 25 23 22 20 18 22 29 33 40 47 51 54 49 32 19 12 7 335 255 241 237 238 243 247 248 243 243 251 257 259 259 259 257 255 253 251 249 247 246 245 243 241 240 237 235 234 233 233 236 239 240 239 238 238 238 236 234 234 236
28 25 22 20 20 18 17 16 15 14 16 19 25 31 38 47 52 48 35 16 1 345 307 253 242 247 245 243 251 251 248 249 251 252 256 260 262 260 257 255 253 250 249 248 246 245 243 240 237 236 234 234 235 237 239 240 240 240 239 238 237 235 236
25 22 18 15 14 13 12 10 9 9 10 11 15 20 27 37 45 49 44 33 16 351 329 297 258 248 240 234 238 243 248 251 248 244 248 257 262 262 259 257 256 254 252 250 249 248 246 242 240 239 236 235 235 236 237 239 242 242 240 238 238 237 237
23 20 15 11 8 6 6 6 4 4 5 7 9 13 19 27 35 43 45 39 27 9 345 327 302 267 243 234 231 230 236 246 250 250 251 255 258 259 259 258 257 256 253 249 246 247 249 246 243 241 239 236 235 236 237 238 240 242 242 240 239 238 239
13 12 10 7 3 1 359 359 0 360 359 0 2 5 10 17 25 35 43 42 32 20 8 350 325 300 266 237 227 226 228 233 240 246 251 253 253 252 252 254 256 256 254 249 242 240 245 247 245 242 241 239 237 237 238 239 239 241 242 242 241 239 240
357 357 1 358 355 357 355 351 353 355 355 355 355 357 3 10 16 24 34 41 36 25 16 8 354 329 302 268 239 229 227 228 229 233 239 244 245 245 244 245 248 250 254 253 245 236 236 242 245 244 242 241 239 238 237 238 239 240 240 240 240 239 238
344 342 345 345 345 346 344 342 344 347 350 349 346 348 354 360 4 11 19 29 33 26 19 15 10 359 335 305 276 251 237 231 229 229 231 234 240 243 242 241 242 242 246 250 249 241 235 235 241 244 244 243 243 241 239 238 239 240 239 238 238 237 237
340 335 331 332 336 334 331 333 335 338 342 341 339 344 347 348 351 355 359 9 17 18 18 19 16 8 355 335 308 283 263 248 238 234 231 230 236 244 244 242 243 242 242 243 245 244 239 234 235 239 242 243 244 243 242 240 239 240 239 238 237 236 236
334 331 329 328 324 321 323 327 326 327 331 330 332 339 340 337 341 345 343 344 351 359 3 8 16 14 2 350 336 313 298 283 267 252 242 236 237 243 246 244 243 243 244 243 243 246 245 239 235 236 238 241 242 243 244 242 241 241 240 238 236 235 235
325 325 328 325 318 316 320 322 318 317 319 320 324 329 330 330 334 337 337 336 335 336 343 350 359 9 6 356 347 333 321 312 300 285 269 255 247 246 247 246 243 243 244 244 246 250 248 244 242 241 239 239 239 240 241 242 242 242 240 238 236 234 233
321 322 325 324 322 321 319 315 313 312 312 313 315 317 318 322 327 329 331 333 330 326 326 331 340 351 1 359 348 338 329 317 308 301 294 284 270 260 253 246 243 243 242 241 244 250 250 247 247 247 245 243 241 239 239 240 243 244 242 239 236 234 232
320 320 322 323 324 324 317 310 308 309 308 307 306 306 309 313 318 321 324 326 325 323 322 322 322 330 343 353 351 343 335 324 312 303 299 298 296 290 279 263 250 243 241 241 242 247 254 256 255 255 252 247 244 241 239 239 242 245 245 242 237 234 233
319 318 320 320 320 321 318 311 305 301 299 299 299 300 303 305 308 311 315 318 318 319 319 317 315 315 322 333 342 344 339 331 323 314 306 303 304 308 311 299 271 250 244 247 247 246 251 257 260 263 262 257 252 247 243 240 240 242 245 243 239 236 233
315 315 315 316 316 316 316 313 306 300 296 295 297 299 299 298 300 304 307 309 313 316 316 314 313 311 309 312 321 328 332 332 328 324 318 312 308 307 310 305 275 250 243 247 249 248 250 253 255 259 263 264 263 259 253 246 241 240 243 242 239 236 234
309 310 311 312 312 312 311 310 308 303 298 294 293 296 297 294 293 297 301 304 308 312 313 313 312 311 308 304 306 310 317 323 326 326 324 320 313 305 298 289 274 256 247 244 246 249 254 254 253 254 256 262 269 272 267 258 248 242 241 243 243 238 234
305 306 307 307 308 309 309 308 305 304 300 295 291 289 289 289 289 290 294 300 303 304 307 311 311 309 309 307 305 305 307 311 317 321 325 325 318 306 296 289 282 269 254 246 246 250 254 257 258 258 257 259 268 276 275 269 260 250 241 241 244 239 231
303 304 304 304 304 305 305 303 301 300 299 296 293 289 283 281 284 285 285 292 298 297 301 308 311 308 307 306 306 305 302 300 306 313 320 324 322 313 302 293 287 277 262 252 249 250 254 259 260 259 259 260 265 271 273 270 266 259 247 240 241 240 234
302 302 302 303 303 303 301 299 298 297 296 295 294 290 283 277 277 279 279 285 294 295 298 305 309 309 307 305 306 307 302 297 298 305 312 316 318 317 311 298 290 287 280 266 255 250 251 254 253 254 259 261 263 267 269 268 265 262 258 249 239 237 240
302 302 303 303 302 301 299 297 296 294 293 293 293 289 282 275 272 273 274 278 284 288 295 302 305 306 307 307 305 305 303 300 297 297 301 309 311 312 313 306 294 289 287 280 269 260 256 255 253 253 257 258 256 258 262 264 265 267 269 263 245 236 244
303 303 304 304 302 301 299 296 294 292 291 292 292 288 282 275 269 268 268 272 277 281 289 299 303 303 305 306 305 302 302 302 301 297 295 300 304 305 306 307 304 296 291 287 282 274 266 264 262 262 261 258 256 256 258 260 262 265 268 270 263 253 256
304 303 303 304 303 303 301 297 294 292 290 290 290 288 282 274 266 264 265 267 272 280 286 292 298 301 302 302 302 301 301 301 302 300 296 296 297 299 300 301 303 303 298 295 292 285 277 274 273 271 268 263 259 260 260 261 262 261 262 266 266 263 266